Location: *
(46.1006°N, 1.8394°E)
Time: 14:15:25
(UTC+00:00)

Cosmos 2322 - Pass Details

Date: 20 September 2019
Orbit: 839 x 856 km, 71.0° (Epoch: 14 October)

Event Time Altitude Azimuth Distance (km) Brightness Sun altitude
Rises 18:13:28 0° 331° (NNW) 3,439 7.4 -4.0°
Reaches altitude 10° 18:15:56 10° 329° (NNW) 2,499 6.7 -4.4°
Maximum altitude 18:21:38 69° 248° (WSW) 915 4.2 -5.4°
Drops below altitude 10° 18:27:18 10° 166° (SSE) 2,477 5.9 -6.4°
Sets 18:29:45 0° 164° (SSE) 3,407 6.6 -6.8°
